EW5726 Weather Reports


Display with metric or nautical units.
time (UTC)temp
F
wind
direction
speed
MPH
gust
MPH
rain 1hr
in
rain 24hr
in
rain mn
in
humidity
%
barometer
mb
20260510203005 59 57 6.0 14.0 0.00 0.00 0.00 38 1019.1
20260510201502 61 221 3.0 8.0 0.00 0.00 0.00 40 1018.5
20260510200004 63 65 4.0 9.0 0.00 0.00 0.00 40 1018.1
20260510194500 68 236 4.0 14.0 0.00 0.00 0.00 34 1017.9
20260510193058 70 229 4.0 12.0 0.00 0.00 0.00 24 1017.5
20260510191609 67 244 4.0 14.0 0.00 0.00 0.00 26 1017.5
20260510190101 68 263 3.0 11.0 0.00 0.00 0.00 23 1017.6
20260510184553 67 240 2.0 13.0 0.00 0.00 0.00 23 1017.7
20260510183052 67 338 3.0 8.0 0.00 0.00 0.00 23 1017.6
20260510181549 66 262 3.0 12.0 0.00 0.00 0.00 27 1017.7
20260510180059 66 250 2.0 11.0 0.00 0.00 0.00 30 1017.7
20260510174545 65 274 4.0 10.0 0.00 0.00 0.00 31 1017.8
20260510173043 64 246 0.0 14.0 0.00 0.00 0.00 30 1018.0
20260510171542 63 247 3.0 12.0 0.00 0.00 0.00 31 1018.1
20260510170044 64 234 2.0 15.0 0.00 0.00 0.00 32 1018.0
20260510164540 64 247 2.0 11.0 0.00 0.00 0.00 32 1017.7
20260510163048 62 242 3.0 13.0 0.00 0.00 0.00 34 1017.6
20260510161545 63 244 1.0 10.0 0.00 0.00 0.00 32 1017.5
20260510160051 62 249 2.0 11.0 0.00 0.00 0.00 32 1017.6
20260510154533 62 242 2.0 10.0 0.00 0.00 0.00 32 1017.6
20260510153030 62 242 4.0 10.0 0.00 0.00 0.00 33 1017.5
20260510151532 63 273 2.0 7.0 0.00 0.00 0.00 31 1017.4
20260510150030 63 165 2.0 9.0 0.00 0.00 0.00 31 1017.3
20260510144536 62 88 1.0 7.0 0.00 0.00 0.00 32 1017.4
20260510143035 61 67 2.0 7.0 0.00 0.00 0.00 34 1017.4
20260510141531 58 67 2.0 8.0 0.00 0.00 0.00 38 1017.5
20260510140015 55 67 2.0 8.0 0.00 0.00 0.00 41 1017.3
20260510134514 53 67 3.0 9.0 0.00 0.00 0.00 44 1017.3
20260510133015 52 67 2.0 8.0 0.00 0.00 0.00 44 1017.3
20260510131511 52 67 2.0 4.0 0.00 0.00 0.00 43 1017.1
20260510130009 53 67 1.0 9.0 0.00 0.00 0.00 43 1016.9
20260510124508 53 69 1.0 8.0 0.00 0.00 0.00 41 1016.7
20260510123009 53 69 2.0 12.0 0.00 0.00 0.00 40 1016.7
20260510121506 54 72 2.0 8.0 0.00 0.00 0.00 40 1016.7
20260510120009 55 74 1.0 5.0 0.00 0.00 0.00 38 1016.6
20260510114505 55 73 3.0 9.0 0.00 0.00 0.00 37 1016.6
20260510113005 56 78 1.0 9.0 0.00 0.00 0.00 36 1016.4
20260510111502 55 130 2.0 7.0 0.00 0.00 0.00 36 1016.3
20260510110002 55 145 1.0 5.0 0.00 0.00 0.00 34 1016.2
20260510104603 52 111 0.0 4.0 0.00 0.00 0.00 38 1016.3
20260510103102 52 111 1.0 4.0 0.00 0.00 0.00 39 1016.1
20260510101555 52 111 1.0 5.0 0.00 0.00 0.00 39 1015.9
20260510100056 51 111 2.0 5.0 0.00 0.00 0.00 40 1015.8
20260510094555 51 111 1.0 3.0 0.00 0.00 0.00 39 1015.6
20260510093104 50 111 3.0 7.0 0.00 0.00 0.00 40 1015.2
20260510091549 49 110 3.0 7.0 0.00 0.00 0.00 42 1014.9
20260510090050 49 111 3.0 8.0 0.00 0.00 0.00 42 1014.7
20260510084550 49 111 3.0 5.0 0.00 0.00 0.00 42 1014.6
20260510083049 49 111 2.0 5.0 0.00 0.00 0.00 41 1014.5
20260510081605 50 111 2.0 5.0 0.00 0.00 0.00 41 1014.5
20260510080040 50 111 2.0 7.0 0.00 0.00 0.00 40 1014.5
20260510074537 51 111 2.0 5.0 0.00 0.00 0.00 38 1014.5
20260510073049 51 111 1.0 4.0 0.00 0.00 0.00 38 1014.5
20260510071535 52 111 2.0 5.0 0.00 0.00 0.00 36 1014.5
20260510070031 53 112 2.0 5.0 0.00 0.00 0.00 35 1014.5
20260510064537 54 112 1.0 5.0 0.00 0.00 0.00 34 1014.3
20260510063037 54 112 2.0 7.0 0.00 0.00 0.00 34 1014.3
20260510061527 54 112 2.0 9.0 0.00 0.00 0.00 33 1014.3
20260510060034 55 91 3.0 7.0 0.00 0.00 0.00 32 1014.2
20260510054523 56 79 2.0 7.0 0.00 0.00 0.00 31 1014.1
20260510053034 57 80 1.0 5.0 0.00 0.00 0.00 29 1014.2
20260510051522 59 80 1.0 4.0 0.00 0.00 0.00 27 1014.2
20260510050017 62 80 0.0 3.0 0.00 0.00 0.00 24 1014.0
20260510044535 61 80 0.0 4.0 0.00 0.00 0.00 24 1014.3
20260510043015 61 79 0.0 7.0 0.00 0.00 0.00 24 1014.4
20260510041514 61 78 0.0 9.0 0.00 0.00 0.00 24 1014.3
20260510040025 59 249 0.0 3.0 0.00 0.00 0.00 23 1014.2
20260510034514 60 249 0.0 0.0 0.00 0.00 0.00 20 1014.0
20260510033012 62 249 0.0 2.0 0.00 0.00 0.00 18 1013.7
20260510031513 64 249 0.0 5.0 0.00 0.00 0.00 17 1013.6
20260510030015 65 248 0.0 3.0 0.00 0.00 0.00 20 1013.2
20260510024513 66 248 0.0 4.0 0.00 0.00 0.00 15 1012.9
20260510023010 67 248 1.0 4.0 0.00 0.00 0.00 15 1012.8
20260510021510 67 244 0.0 2.0 0.00 0.00 0.00 16 1012.4
20260510020018 69 246 5.0 13.0 0.00 0.00 0.00 15 1012.3
20260510014509 69 252 6.0 14.0 0.00 0.00 0.00 14 1012.2
20260510013009 71 276 3.0 14.0 0.00 0.00 0.00 13 1012.0
20260510011513 71 254 1.0 11.0 0.00 0.00 0.00 13 1011.8
20260510010007 71 11 3.0 14.0 0.00 0.00 0.00 13 1011.8
20260510004506 72 261 4.0 12.0 0.00 0.00 0.00 13 1011.9
20260510003005 71 266 3.0 15.0 0.00 0.00 0.00 13 1011.7
20260510001505 73 250 5.0 12.0 0.00 0.00 0.00 13 1011.5
20260510000012 72 244 5.0 19.0 0.00 0.00 0.00 13 1011.7
20260509234503 72 261 6.0 16.0 0.00 0.00 0.00 13 1011.4
20260509233006 73 250 9.0 17.0 0.00 0.00 0.00 13 1011.2
20260509231501 74 249 5.0 15.0 0.00 0.00 0.00 13 1011.2
20260509230001 74 234 3.0 16.0 0.00 0.00 0.00 13 1011.4
20260509224601 73 248 4.0 18.0 0.00 0.00 0.00 14 1011.2
20260509223101 73 250 5.0 14.0 0.00 0.00 0.00 14 1011.4
20260509221557 73 244 4.0 21.0 0.00 0.00 0.00 14 1011.5
20260509220058 75 232 7.0 17.0 0.00 0.00 0.00 13 1011.7
20260509214552 74 237 6.0 13.0 0.00 0.00 0.00 15 1011.9
20260509213049 72 211 4.0 13.0 0.00 0.00 0.00 15 1012.2
20260509211547 72 244 8.0 15.0 0.00 0.00 0.00 16 1012.7
20260509210045 72 335 4.0 9.0 0.00 0.00 0.00 15 1012.9
20260509204543 72 284 2.0 13.0 0.00 0.00 0.00 16 1013.1